Weather in Volya-Visotskaya

Ukraine / Lviv District     50°04′40″N   23°56′14″E
temp.,
°C
wind,
m/s
gust,
m/s
humid.,
%
clouds,
%
prec.,
mm/h
press.,
hPa
HPBL,
m
17 june, thu
thu1700:00+15ne22925 0.0 102017
03:00+14ne11940 0.0 102012
06:00+13nne11920 0.0 102011
09:00+17e34785 0.0 1022350
12:00+22ene336054 0.0 1021955
15:00+23ene3460100 0.0 10211527
18:00+22ene357034 0.1 1021518
21:00+19ene22830 0.1 102129
18 june, fri
fri1800:00+16e22910 0.0 102216
03:00+15ese22930 0.0 102218
06:00+15e22940 0.0 102233
09:00+19e46793 0.0 1022390
12:00+23e46665 0.0 10211201
15:00+25e56605 0.0 10201485
18:00+24e46671 0.0 10191357
21:00+20e37880 0.1 1020159
19 june, sat
sat1900:00+18ese23950 0.0 102054
03:00+16ese27973 0.0 1020156
06:00+16ese279827 0.0 1020187
09:00+20ese58837 0.0 1020533
12:00+23ese68663 0.0 10191112
15:00+25ese566050 0.0 10181542
18:00+23ese45685 0.1 1018846
21:00+19e25905 0.9 1018105
20 june, sun
sun2000:00+16se369658 0.0 1018112
03:00+15se23965 0.0 101847
06:00+15ese24965 0.0 101895
09:00+20se46825 0.0 1018446
12:00+24se46665 0.0 10171032
15:00+26ese445832 0.0 10151556
18:00+25ese456548 0.0 10151401
21:00+21ese22815 0.0 101535
21 june, mon
mon2100:00+18se229349 0.0 101526
03:00+16ese22917 0.0 101417
06:00+16e12955 0.0 101416
09:00+21ese45795 0.0 1014454
12:00+24ese456661 0.1 10131362
15:00+24se236666 0.1 1013741
18:00+25e33665 0.0 1012856
21:00+21ese228631 0.1 101237